FENGYUN 1C DEB, 31264

Orbit data source: Space-Track

FENGYUN 1C DEB, 31264 is space debris in SSO originally from a launch on Mon, 10 May 1999 UTC launched from the Taiyaun Space Center, China (TSC). Fengyun 1C debris stems from the Chinese weather satellite Fengyun-1C, which was intentionally destroyed by a Chinese anti-satellite missile in 2007. This event dramatically increased the amount of space debris, with thousands of trackable fragments posing hazards to satellites and human spaceflight. The Fengyun 1C debris cloud has become a focal point in discussions about space sustainability and the need for international regulations to prevent the creation of new debris.

Loading next visibility...
Identifier
31264, 1999-025BMW
Orbit
SSO
Country
Flag of CNCN / PRC
Related business
Manufacturer
Unknown
Mission
Spacecraft
Bus & Motor
Unknown
Mass
Unknown
Launch date (UTC)
1999-05-10 (27 years ago)
Launch vehicle
Unknown
Launch site
Taiyaun Space Center, China (TSC)
Object type
Payload
Rocket body
Debris
Shape & HBR
Unknown shape, 0.1 m
Radar Cross Section
Small (<0.1 m²)

Expand to show TLE details & history
Last TLE update: 6 hours ago

TLE from 6 hours ago
0 FENGYUN 1C DEB
1 31264U 99025BMW 25354.94313836  .00000813  00000-0  41498-3 0  9998
2 31264  99.1147 252.1510 0000869   8.7685  50.2965 14.18607707965459
Epoch: 2025-12-20T22:38Z
TLE epoch observation values (Epoch: 2025-12-20T22:38:07.154Z)
Latitude
57.98448°
Longitude
168.07055°
Altitude
839.388 km
Speed
7.439 km/s
True Right ascension
15h 49m 27s
True Declination
57° 49' 53"
Sunlit
Object was in daylight at epoch
Visualization orbit readout
Latitude
Unknown
Longitude
Unknown
Altitude
Unknown
Speed
Unknown
Apparent Right ascension
Unknown
Apparent Declination
Unknown
Sunlit
N/A
Visualization observer readout
Local Sidereal Time
03:41:53
Azimuth
Unknown
Elevation
Unknown
Doppler factor
Unknown
Orbital elements
Apogee altitude
827.872 km
Perigee altitude
826.619 km
Semi-major axis
7,205.383 km
Eccentricity
0.00009
Inclination
99.1147°
RAAN
252.151°
Arg. of periapsis
8.7685°
True anomaly
50.30416°
Mean anomaly
50.2965°
Eccentric anomaly
50.30033°
Mean motion
3.5486 °/min
Orbital period
101.45 mins
BSTAR
0.00041498
Loading maneuver chart data...
Computing Atmospheric mass density...

Documentation

Showing up to 5 results
|